Location: Warszawa
(52.2500°N, 21.0000°E)
Time: 12:58:31
(UTC+02:00)

Vanguard 2 - Pass Details

Date: 09 February 2023
Orbit: 553 x 2927 km, 32.9° (Epoch: 27 March)

Event Time Altitude Azimuth Distance (km) Brightness Sun altitude
Rises 01:27:38 0° 267° (W) 6,191 - -47.8°
Reaches altitude 10° 01:32:52 10° 254° (WSW) 5,452 - -47.4°
Maximum altitude 01:44:02 22° 212° (SSW) 4,779 - -46.3°
Drops below altitude 10° 01:55:36 10° 171° (S) 5,619 - -45.0°
Exits shadow 01:59:39 - 161° (SSE) 6,181 11.9 -44.6°
Sets 02:01:13 0° 158° (SSE) 6,419 12.1 -44.4°
